Location: Gwatt
(46.7204°N, 7.6223°E)
Time: 01:10:17
(UTC+00:00)

Transit 2A - Pass Details

Date: 30 January 2021
Orbit: 601 x 958 km, 66.7° (Epoch: 07 March)

Event Time Altitude Azimuth Distance (km) Brightness Sun altitude
Rises 09:27:31 0° 331° (NNW) 3,036 8.5 18.9°
Reaches altitude 10° 09:30:08 10° 341° (NNW) 2,069 7.7 19.1°
Maximum altitude 09:34:16 31° 45° (NE) 1,092 6.9 19.5°
Drops below altitude 10° 09:38:11 10° 109° (ESE) 1,957 9.0 19.9°
Sets 09:40:35 0° 119° (ESE) 2,844 10.0 20.1°
